Alexandria, LA

9:49 AM CST on February 20, 2017 (GMT -0600)
Alexandria International

Weather History for KAEX - January, 2002

Change the Weather History Date:

Monday, January 21, 2002

  Actual Average Record
Temperature  
Mean Temperature 57 °F 49 °F  
Max Temperature 68 °F 59 °F 79 °F (1937)
Min Temperature 46 °F 38 °F 13 °F (1985)
Degree Days  
Heating Degree Days 8 16  
Month to date heating degree days 336  
Since 1 July heating degree days 1125  
Growing Degree Days 7 (Base 50)    
Moisture  
Dew Point 44 °F    
Average Humidity 76    
Maximum Humidity 100    
Minimum Humidity 32    
Precipitation  
Precipitation 0.00 in 0.18 in 2.30 in (1954)
Month to date precipitation 3.30  
Year to date precipitation 3.30  
Snow  
Snow 0.00 in - T in (1946)
Month to date snowfall  
Since 1 July snowfall  
Snow Depth -    
Sea Level Pressure  
Sea Level Pressure 30.10 in    
Wind  
Wind Speed 4 mph (North)    
Max Wind Speed 10 mph    
Max Gust Speed -    
Visibility 7 miles    
Events Fog    
T = Trace of Precipitation, MM = Missing Value Source: NWS Daily Summary

Daily Weather History Graph

Daily Weather History Graph

Search for Another Location

Airport or City:

Trip Planner

Search our weather history database for the weather conditions in past years. The results will help you decide how hot, cold, wet, or windy it might be!

Date:

Astronomy

Jan. 21, 2002 Rise Set
Actual Time 7:08 AM CST 5:35 PM CST
Civil Twilight 6:42 AM CST 6:01 PM CST
Nautical Twilight 6:12 AM CST 6:30 PM CST
Astronomical Twilight 5:43 AM CST 6:59 PM CST
Moon 11:50 AM CST (1/21) 12:03 AM CST (1/21)
Length of Visible Light 11h 19m
Length of Day
10h 27m
Waxing Crescent, 50% of the Moon is Illuminated
Jan 21
Waxing Crescent
Jan 28
Full
Feb 4
Last Quarter
Feb 12
New
Feb 20
First Quarter

Hourly Weather History & Observations

Time (CST) Temp. Windchill Dew Point Humidity Pressure Visibility Wind Dir Wind Speed Gust Speed Precip Events Conditions
12:53 AM 48.0 °F - 46.0 °F 93% 30.02 in 5.0 mi NW 4.6 mph - N/A   Overcast
1:53 AM 48.0 °F - 46.0 °F 93% 30.02 in 5.0 mi Calm Calm - N/A   Overcast
2:53 AM 46.9 °F - 46.9 °F 100% 30.03 in 3.0 mi Calm Calm - N/A   Overcast
3:06 AM 46.4 °F - 46.4 °F 100% 30.01 in 2.5 mi Calm Calm - N/A   Overcast
3:21 AM 46.4 °F 45.2 °F 46.4 °F 100% 30.02 in 1.5 mi West 3.5 mph - N/A   Overcast
3:53 AM 46.9 °F - 46.9 °F 100% 30.03 in 0.5 mi Calm Calm - N/A Fog Fog
4:07 AM 46.4 °F - 46.4 °F 100% 30.02 in 0.8 mi Calm Calm - N/A   Overcast
4:53 AM 48.0 °F - 48.0 °F 100% 30.04 in 0.5 mi WNW 4.6 mph - N/A Fog Fog
5:19 AM 48.2 °F - 48.2 °F 100% 30.04 in 1.0 mi NW 8.1 mph - N/A   Overcast
5:27 AM 50.0 °F - 50.0 °F 100% 30.04 in 3.0 mi WNW 10.4 mph - N/A   Overcast
5:35 AM 50.0 °F - 50.0 °F 100% 30.04 in 6.0 mi NW 9.2 mph - N/A   Overcast
5:53 AM 50.0 °F - 50.0 °F 100% 30.06 in 7.0 mi NNW 8.1 mph - N/A   Overcast
6:53 AM 48.9 °F - 48.9 °F 100% 30.10 in 7.0 mi NW 10.4 mph - N/A   Overcast
7:20 AM 50.0 °F - 48.2 °F 94% 30.10 in 6.0 mi NNW 8.1 mph - N/A   Overcast
7:53 AM 50.0 °F - 48.9 °F 96% 30.13 in 5.0 mi North 4.6 mph - N/A   Mostly Cloudy
8:11 AM 50.0 °F - 48.2 °F 94% 30.12 in 5.0 mi NNW 4.6 mph - N/A   Scattered Clouds
8:53 AM 52.0 °F - 48.9 °F 89% 30.16 in 7.0 mi NNW 6.9 mph - N/A   Partly Cloudy
9:53 AM 55.9 °F - 48.0 °F 75% 30.18 in 10.0 mi NNW 10.4 mph - N/A   Clear
10:53 AM 60.1 °F - 44.1 °F 55% 30.19 in 10.0 mi Variable 5.8 mph - N/A   Clear
11:53 AM 63.0 °F - 39.9 °F 43% 30.18 in 10.0 mi Variable 5.8 mph - N/A   Clear
12:53 PM 66.0 °F - 37.9 °F 36% 30.15 in 10.0 mi NNE 9.2 mph - N/A   Clear
1:53 PM 66.9 °F - 37.0 °F 33% 30.11 in 10.0 mi NNE 10.4 mph - N/A   Clear
2:53 PM 68.0 °F - 37.9 °F 33% 30.10 in 10.0 mi NE 10.4 mph - N/A   Clear
3:53 PM 66.9 °F - 36.0 °F 32% 30.10 in 10.0 mi Variable 3.5 mph - N/A   Clear
4:53 PM 64.0 °F - 37.0 °F 37% 30.12 in 10.0 mi East 4.6 mph - N/A   Clear
5:53 PM 60.1 °F - 37.0 °F 42% 30.13 in 10.0 mi East 5.8 mph - N/A   Clear
6:53 PM 57.9 °F - 37.9 °F 47% 30.15 in 10.0 mi East 5.8 mph - N/A   Clear
7:53 PM 55.0 °F - 37.9 °F 53% 30.16 in 10.0 mi NE 3.5 mph - N/A   Clear
8:53 PM 51.1 °F - 39.0 °F 63% 30.17 in 10.0 mi Calm Calm - N/A   Clear
9:53 PM 48.9 °F - 41.0 °F 74% 30.17 in 10.0 mi Calm Calm - N/A   Clear
10:53 PM 46.9 °F - 41.0 °F 80% 30.17 in 10.0 mi Calm Calm - N/A   Clear
11:53 PM 46.9 °F - 42.1 °F 83% 30.16 in 10.0 mi Calm Calm - N/A   Clear